Farmington, MO

7:14 AM CST on December 06, 2019 (GMT -0600)
Farmington Regional

Weather History for KFAM - October, 2019

Change the Weather History Date:

Wednesday, October 9, 2019

  Actual Average Record
Temperature  
Mean Temperature 58 °F -  
Max Temperature 77 °F 68 °F 87 °F (2017)
Min Temperature 39 °F 46 °F 28 °F (2000)
Degree Days  
Heating Degree Days 7    
Growing Degree Days 8 (Base 50)    
Moisture  
Dew Point 49 °F    
Average Humidity 76    
Maximum Humidity 100    
Minimum Humidity 45    
Precipitation  
Precipitation 0.00 in - - ()
Sea Level Pressure  
Sea Level Pressure 30.09 in    
Wind  
Wind Speed 2 mph (SE)    
Max Wind Speed 10 mph    
Max Gust Speed -    
Visibility 9 miles    
Events      
Averages and records for this station are not official NWS values.
T = Trace of Precipitation, MM = Missing Value Source: NWS Daily Summary

Daily Weather History Graph

Daily Weather History Graph

Search for Another Location

Airport or City:

Astronomy

Oct. 09, 2019 Rise Set
Actual Time 7:04 AM CDT 6:33 PM CDT
Civil Twilight 6:38 AM CDT 6:59 PM CDT
Nautical Twilight 6:07 AM CDT 7:29 PM CDT
Astronomical Twilight 5:37 AM CDT 8:00 PM CDT
Moon 4:59 PM CDT (10/9) 2:57 AM CDT (10/9)
Length of Visible Light 12h 21m
Length of Day
11h 28m
Waxing Gibbous, 85% of the Moon is Illuminated
Oct 9
Waxing Gibbous
Oct 13
Full
Oct 21
Last Quarter
Oct 27
New
Nov 4
First Quarter

Hourly Weather History & Observations

Time (CDT) Temp. Dew Point Humidity Pressure Visibility Wind Dir Wind Speed Gust Speed Precip Events Conditions
12:56 AM 46.0 °F 44.1 °F 93% 30.13 in 10.0 mi Calm Calm - N/A   Clear
1:56 AM 44.1 °F 43.0 °F 96% 30.13 in 10.0 mi Calm Calm - N/A   Clear
2:56 AM 43.0 °F 43.0 °F 100% 30.12 in 10.0 mi Calm Calm - N/A   Clear
3:56 AM 42.1 °F 42.1 °F 100% 30.12 in 8.0 mi Calm Calm - N/A   Clear
4:11 AM 41.0 °F 39.2 °F 93% 30.09 in 1.5 mi Calm Calm - N/A   Clear
4:15 AM 39.2 °F 39.2 °F 100% 30.09 in 5.0 mi Calm Calm - N/A   Clear
4:56 AM 41.0 °F 39.9 °F 96% 30.13 in 10.0 mi Calm Calm - N/A   Clear
5:56 AM 39.9 °F 39.0 °F 97% 30.14 in 10.0 mi Calm Calm - N/A   Clear
6:56 AM 39.9 °F 39.0 °F 97% 30.14 in 10.0 mi Calm Calm - N/A   Clear
7:56 AM 43.0 °F 41.0 °F 93% 30.14 in 10.0 mi Calm Calm - N/A   Clear
8:56 AM 51.1 °F 46.9 °F 86% 30.14 in 10.0 mi Calm Calm - N/A   Clear
9:56 AM 61.0 °F 50.0 °F 67% 30.15 in 10.0 mi Variable 4.6 mph - N/A   Clear
10:56 AM 69.1 °F 52.0 °F 54% 30.15 in 10.0 mi SSE 5.8 mph - N/A   Partly Cloudy
11:56 AM 71.1 °F 54.0 °F 55% 30.13 in 10.0 mi ESE 10.4 mph - N/A   Clear
12:56 PM 73.0 °F 55.9 °F 55% 30.10 in 10.0 mi Variable 5.8 mph - N/A   Clear
1:56 PM 75.9 °F 54.0 °F 46% 30.06 in 10.0 mi South 10.4 mph - N/A   Clear
2:56 PM 75.9 °F 53.1 °F 45% 30.05 in 10.0 mi ESE 8.1 mph - N/A   Clear
3:56 PM 77.0 °F 54.0 °F 45% 30.04 in 10.0 mi Variable 6.9 mph - N/A   Clear
4:56 PM 73.0 °F 54.0 °F 51% 30.02 in 10.0 mi SE 5.8 mph - N/A   Clear
5:56 PM 70.0 °F 55.9 °F 61% 30.04 in 10.0 mi SSE 3.5 mph - N/A   Clear
6:56 PM 66.0 °F 55.9 °F 70% 30.04 in 10.0 mi East 4.6 mph - N/A   Clear
7:56 PM 64.0 °F 55.9 °F 75% 30.04 in 10.0 mi ESE 4.6 mph - N/A   Clear
8:56 PM 64.9 °F 55.9 °F 73% 30.02 in 10.0 mi ESE 9.2 mph - N/A   Clear
9:56 PM 66.9 °F 55.0 °F 66% 30.01 in 10.0 mi SE 9.2 mph - N/A   Clear
10:56 PM 63.0 °F 55.0 °F 75% 30.03 in 10.0 mi SSE 6.9 mph - N/A   Clear
11:56 PM 63.0 °F 55.9 °F 78% 30.03 in 10.0 mi South 4.6 mph - N/A   Clear